Total_Precipitation_Accumulation
0.27 0.27 0.25 0.23 0.22 0.21 0.22 0.22 0.22 0.24 0.26 0.29 0.31 0.29 0.32 0.31 0.27 0.25 0.20 0.18 0.17 0.23 0.35 0.48 0.64 0.84 1.04 1.12 1.14 1.05 0.98 0.90 0.79 0.72 0.71 0.74 0.85 0.95 1.02 0.99 1.03 1.07 1.06
0.25 0.25 0.25 0.24 0.21 0.20 0.21 0.21 0.21 0.23 0.24 0.25 0.24 0.24 0.27 0.26 0.24 0.25 0.24 0.24 0.21 0.21 0.31 0.40 0.49 0.65 0.92 1.14 1.22 1.16 1.09 1.06 1.02 0.96 0.84 0.81 0.85 0.93 1.03 1.09 0.96 0.91 0.89
0.27 0.24 0.23 0.23 0.22 0.22 0.24 0.24 0.23 0.24 0.23 0.23 0.24 0.24 0.24 0.23 0.22 0.25 0.27 0.27 0.27 0.24 0.28 0.41 0.47 0.55 0.76 1.01 1.23 1.38 1.23 1.17 1.21 1.20 1.04 0.93 0.88 0.93 0.98 1.10 1.13 1.04 0.95
0.30 0.31 0.29 0.25 0.23 0.24 0.29 0.29 0.26 0.25 0.22 0.22 0.22 0.24 0.24 0.24 0.23 0.23 0.28 0.27 0.28 0.27 0.27 0.34 0.46 0.54 0.68 0.84 1.05 1.36 1.46 1.39 1.37 1.35 1.28 1.16 1.00 1.00 1.04 1.10 1.18 1.21 1.17
0.32 0.32 0.32 0.31 0.31 0.32 0.31 0.33 0.31 0.31 0.29 0.24 0.24 0.27 0.29 0.31 0.32 0.32 0.34 0.34 0.31 0.30 0.30 0.32 0.39 0.44 0.56 0.74 0.95 1.20 1.48 1.59 1.56 1.54 1.49 1.41 1.26 1.11 1.11 1.17 1.22 1.34 1.38
0.35 0.34 0.32 0.33 0.36 0.39 0.39 0.38 0.34 0.32 0.33 0.34 0.39 0.38 0.41 0.41 0.38 0.32 0.34 0.38 0.37 0.33 0.36 0.36 0.36 0.35 0.39 0.51 0.74 1.00 1.29 1.55 1.66 1.68 1.71 1.68 1.57 1.41 1.24 1.21 1.24 1.37 1.52
0.37 0.38 0.36 0.36 0.36 0.35 0.34 0.32 0.33 0.33 0.31 0.32 0.40 0.41 0.38 0.39 0.35 0.30 0.31 0.38 0.45 0.48 0.48 0.49 0.47 0.42 0.40 0.42 0.45 0.62 0.90 1.27 1.59 1.72 1.79 1.82 1.79 1.70 1.54 1.40 1.34 1.39 1.54
0.43 0.43 0.42 0.40 0.37 0.34 0.32 0.29 0.29 0.31 0.30 0.30 0.36 0.42 0.38 0.35 0.31 0.26 0.27 0.32 0.40 0.48 0.52 0.54 0.56 0.57 0.52 0.47 0.36 0.38 0.52 0.83 1.27 1.68 1.88 1.97 2.08 2.07 1.91 1.71 1.57 1.56 1.62
0.45 0.43 0.43 0.45 0.42 0.38 0.34 0.31 0.30 0.30 0.31 0.29 0.31 0.47 0.53 0.40 0.27 0.19 0.21 0.23 0.27 0.31 0.37 0.43 0.49 0.55 0.58 0.56 0.49 0.39 0.38 0.56 0.88 1.30 1.77 2.07 2.30 2.51 2.45 2.16 1.94 1.83 1.79
0.48 0.44 0.42 0.44 0.45 0.42 0.37 0.34 0.33 0.33 0.35 0.36 0.33 0.34 0.39 0.40 0.45 0.29 0.15 0.15 0.17 0.19 0.22 0.27 0.31 0.38 0.47 0.52 0.55 0.56 0.53 0.52 0.75 1.01 1.40 1.89 2.36 2.78 3.04 2.82 2.41 2.10 1.98
0.50 0.46 0.44 0.43 0.44 0.42 0.39 0.36 0.35 0.37 0.38 0.40 0.41 0.40 0.36 0.33 0.35 0.45 0.28 0.15 0.15 0.15 0.16 0.20 0.24 0.28 0.34 0.43 0.49 0.57 0.64 0.64 0.79 0.97 1.16 1.53 2.05 2.72 3.22 3.25 2.90 2.50 2.21
0.55 0.52 0.48 0.45 0.42 0.40 0.38 0.37 0.37 0.37 0.37 0.38 0.41 0.43 0.45 0.47 0.40 0.44 0.40 0.22 0.18 0.16 0.17 0.18 0.21 0.26 0.33 0.42 0.48 0.62 0.69 0.73 0.82 0.96 0.99 1.18 1.54 2.13 2.88 3.32 3.24 2.93 2.61
0.56 0.53 0.52 0.48 0.45 0.42 0.39 0.38 0.42 0.43 0.42 0.43 0.42 0.43 0.42 0.41 0.40 0.48 0.54 0.38 0.25 0.18 0.18 0.20 0.21 0.25 0.32 0.40 0.45 0.56 0.60 0.64 0.71 0.82 0.87 0.86 1.00 1.42 2.16 2.96 3.41 3.34 3.10
0.54 0.51 0.52 0.52 0.48 0.45 0.45 0.44 0.45 0.46 0.48 0.49 0.47 0.46 0.48 0.44 0.44 0.50 0.59 0.64 0.53 0.30 0.20 0.17 0.16 0.21 0.28 0.33 0.40 0.49 0.48 0.53 0.56 0.66 0.77 0.80 0.79 0.90 1.32 2.10 2.95 3.50 3.48
0.61 0.57 0.57 0.59 0.58 0.57 0.57 0.57 0.55 0.52 0.53 0.53 0.53 0.54 0.57 0.53 0.51 0.49 0.53 0.66 0.87 0.71 0.33 0.17 0.15 0.18 0.23 0.30 0.38 0.43 0.41 0.47 0.51 0.55 0.65 0.73 0.78 0.82 0.94 1.25 1.96 2.83 3.48
0.67 0.66 0.65 0.62 0.61 0.62 0.67 0.72 0.70 0.62 0.61 0.60 0.60 0.61 0.62 0.61 0.60 0.58 0.58 0.60 0.73 0.87 0.62 0.23 0.18 0.20 0.26 0.30 0.39 0.43 0.41 0.47 0.49 0.53 0.55 0.60 0.69 0.80 0.90 1.01 1.29 1.96 2.74
0.69 0.71 0.72 0.70 0.66 0.66 0.69 0.73 0.73 0.73 0.73 0.71 0.71 0.73 0.68 0.65 0.70 0.68 0.67 0.66 0.66 0.77 0.78 0.33 0.19 0.22 0.32 0.41 0.40 0.40 0.40 0.41 0.43 0.49 0.53 0.55 0.60 0.68 0.79 0.91 1.04 1.38 2.04
0.66 0.71 0.74 0.74 0.71 0.69 0.73 0.78 0.77 0.75 0.79 0.81 0.80 0.80 0.77 0.75 0.77 0.76 0.80 0.78 0.70 0.67 0.77 0.56 0.28 0.25 0.31 0.39 0.42 0.42 0.41 0.39 0.39 0.46 0.51 0.56 0.60 0.65 0.72 0.81 0.93 1.07 1.42
0.77 0.79 0.82 0.85 0.81 0.79 0.82 0.83 0.84 0.83 0.81 0.83 0.84 0.88 0.87 0.88 0.88 0.86 0.88 0.88 0.83 0.73 0.73 0.72 0.46 0.32 0.33 0.40 0.49 0.49 0.46 0.45 0.44 0.47 0.49 0.55 0.62 0.66 0.70 0.75 0.83 0.93 1.03
0.91 0.95 0.94 0.94 0.95 0.97 1.14 1.17 1.04 0.98 0.92 0.88 0.88 0.92 0.96 1.01 1.02 1.03 1.10 1.08 1.04 1.01 0.92 0.87 0.68 0.52 0.48 0.48 0.57 0.60 0.55 0.51 0.54 0.53 0.55 0.54 0.59 0.65 0.68 0.68 0.66 0.71 0.85
1.06 1.06 1.07 1.03 1.03 1.14 1.44 1.56 1.31 1.16 1.08 1.02 0.95 0.95 0.97 1.05 1.20 1.36 1.48 1.41 1.29 1.29 1.22 1.15 0.98 0.79 0.67 0.67 0.74 0.70 0.71 0.61 0.62 0.64 0.62 0.56 0.53 0.52 0.56 0.64 0.69 0.70 0.76
1.15 1.15 1.12 1.08 1.02 1.13 1.49 1.59 1.31 1.11 0.96 0.94 0.91 0.85 0.85 0.91 0.98 1.12 1.30 1.32 1.30 1.43 1.48 1.39 1.22 1.05 0.81 0.73 0.82 0.93 0.98 0.98 0.88 0.72 0.70 0.68 0.61 0.60 0.56 0.55 0.67 0.71 0.79
0.98 0.98 0.98 0.98 0.94 0.96 1.34 1.46 1.21 0.89 0.76 0.76 0.73 0.71 0.68 0.71 0.80 0.78 0.91 0.98 1.04 1.13 1.30 1.41 1.43 1.18 0.98 0.89 1.06 1.21 1.20 1.17 0.95 0.80 0.90 0.97 0.84 0.75 0.67 0.67 0.75 0.71 0.77
0.88 0.84 0.77 0.75 0.75 0.82 1.19 1.43 1.23 0.80 0.69 0.70 0.70 0.69 0.67 0.65 0.71 0.85 0.93 0.89 0.81 0.82 0.99 1.19 1.36 1.25 1.14 1.16 1.39 1.60 1.66 1.65 1.38 1.10 1.04 1.21 1.05 0.95 0.87 0.82 0.80 0.72 0.72
0.69 0.73 0.71 0.65 0.63 0.65 0.95 1.33 1.26 0.88 0.82 0.76 0.75 0.77 0.77 0.68 0.75 0.94 1.01 0.95 0.80 0.74 0.80 1.03 1.23 1.34 1.41 1.56 1.79 2.08 2.17 2.21 2.02 1.61 1.33 1.32 1.21 1.11 1.08 1.03 0.95 0.86 0.77
0.56 0.58 0.62 0.62 0.60 0.58 0.73 1.13 1.29 0.94 0.85 0.79 0.77 0.81 0.94 0.91 0.90 0.94 0.97 1.01 0.97 0.78 0.69 0.75 0.82 0.93 1.05 1.21 1.53 1.79 1.94 2.10 2.05 1.94 1.59 1.46 1.44 1.38 1.48 1.24 1.00 0.86 0.78